Starlink 6181

operational
NORAD ID: 56888 Int'l Des: 2023-083 Owner: SPXS Country: US Constellation: starlink
LEOCIRCULAR

关于 Starlink 6181

正在加载描述...

实时位置

正在加载3D地球...

即将过境

高度历史

Altitude vs Time

uPlot chart will show altitude changes over time

两行轨道根数

1 56888U 23083N 26034.92990491 -.00000396 00000-0 -14248-4 0 9992
2 56888 43.0043 265.0824 0001285 265.7510 94.3185 15.02535789146590
Epoch: Feb 3, 2026 • Age: 31 hours

当前状态

高度 562.2 km
速度 7.59 km/s
星下点 39.00°N, 166.02°E
发射日期 Jun 12, 2023
运行时间 2.6 years
类型 internet

技术详情

分类 Payload
质量 305.00 kg
干质量 290.00 kg
总质量 305.00 kg
长度 0.20 m
直径 2.80 m
跨度 9.00 m
形状 Box + pan
制造商 SPXS
平台类型 Starlink
阶段状态 In Orbit
所有者/国家 SPXS/US

大型星座

Loading constellations...